Terug naar catalogus

DELTA 1 DEB

ActiefPO
NORAD 21347·DEBRIS·🇺🇸 United States

Gelanceerd Jun 12, 1975 vanaf Vandenberg Space Force Base

Loading…

Volgende Passages (komende 24 uur)

TLE

VersSource: Space-Track

Epoch: Sep 14, 2026, 08:22 UTC

1 21347U 75052BR  26257.34888177 -.00001716  00000-0 -22624-2 0  9999
2 21347  99.4070  27.0085 0393609  81.4171 307.6304 13.32032074676458

Volg DELTA 1 DEB in realtime met AllMySat

Download on the App Store